Gainesville, GA

1:29 AM EDT on July 21, 2017 (GMT -0400)
Gilmer Memorial

Weather History for KGVL - December, 2011

Change the Weather History Date:

Friday, December 23, 2011

  Actual Average Record
Temperature  
Mean Temperature 50 °F 42 °F  
Max Temperature 57 °F 51 °F 69 °F (1931)
Min Temperature 43 °F 34 °F 12 °F (1989)
Degree Days  
Heating Degree Days 14 23  
Month to date heating degree days 475  
Since 1 July heating degree days 1010  
Moisture  
Dew Point 43 °F    
Average Humidity 80    
Maximum Humidity 97    
Minimum Humidity 57    
Precipitation  
Precipitation 0.00 in 0.13 in 2.28 in (2015)
Month to date precipitation 3.72  
Year to date precipitation 53.20  
Snow  
Snow 0.00 in - - ()
Month to date snowfall  
Since 1 July snowfall  
Snow Depth -    
Sea Level Pressure  
Sea Level Pressure 30.15 in    
Wind  
Wind Speed 11 mph (WNW)    
Max Wind Speed 14 mph    
Max Gust Speed 21 mph    
Visibility 10 miles    
Events      
T = Trace of Precipitation, MM = Missing Value Source: NWS Daily Summary

Daily Weather History Graph

Daily Weather History Graph

Search for Another Location

Airport or City:

Trip Planner

Search our weather history database for the weather conditions in past years. The results will help you decide how hot, cold, wet, or windy it might be!

Date:

Astronomy

Dec. 23, 2011 Rise Set
Actual Time 7:38 AM EST 5:30 PM EST
Civil Twilight 7:10 AM EST 5:58 PM EST
Nautical Twilight 6:39 AM EST 6:29 PM EST
Astronomical Twilight 6:08 AM EST 7:00 PM EST
Moon 6:26 AM EST (12/23) 4:38 PM EST (12/23)
Length of Visible Light 10h 47m
Length of Day
9h 51m
Waning Crescent, 1% of the Moon is Illuminated
Dec 23
Waning Crescent
Dec 24
New
Jan 1
First Quarter
Jan 9
Full
Jan 16
Last Quarter

Hourly Weather History & Observations

Time (EST) Temp. Windchill Dew Point Humidity Pressure Visibility Wind Dir Wind Speed Gust Speed Precip Events Conditions
12:48 AM 51.8 °F - 50.0 °F 94% 30.04 in 10.0 mi West 11.5 mph - N/A   Scattered Clouds
12:53 AM 51.1 °F - 50.0 °F 96% 30.02 in 10.0 mi West 9.2 mph - N/A   Mostly Cloudy
1:53 AM 50.0 °F - 48.9 °F 96% 30.03 in 10.0 mi WNW 12.7 mph - N/A   Mostly Cloudy
2:04 AM 50.0 °F - 48.2 °F 94% 30.04 in 10.0 mi West 11.5 mph - N/A   Scattered Clouds
2:53 AM 48.0 °F - 46.9 °F 96% 30.04 in 10.0 mi West 10.4 mph - N/A   Partly Cloudy
3:53 AM 46.9 °F - 46.0 °F 97% 30.06 in 10.0 mi West 11.5 mph - N/A   Clear
4:50 AM 46.4 °F 41.9 °F 44.6 °F 93% 30.08 in 10.0 mi West 9.2 mph - N/A   Partly Cloudy
4:53 AM 46.0 °F 41.4 °F 45.0 °F 96% 30.06 in 10.0 mi WNW 9.2 mph - N/A   Partly Cloudy
5:53 AM 46.0 °F 41.0 °F 44.1 °F 93% 30.09 in 10.0 mi WNW 10.4 mph - N/A   Clear
7:53 AM 46.0 °F 40.2 °F 42.1 °F 86% 30.15 in 10.0 mi WNW 12.7 mph - N/A   Clear
8:53 AM 48.0 °F - 43.0 °F 83% 30.17 in 10.0 mi WNW 11.5 mph 19.6 mph N/A   Clear
9:53 AM 50.0 °F - 42.1 °F 74% 30.19 in 10.0 mi WNW 11.5 mph 20.7 mph N/A   Clear
10:53 AM 52.0 °F - 43.0 °F 71% 30.20 in 10.0 mi NW 13.8 mph 17.3 mph N/A   Clear
11:53 AM 54.0 °F - 43.0 °F 66% 30.20 in 10.0 mi WNW 10.4 mph 17.3 mph N/A   Clear
1:53 PM 55.9 °F - 43.0 °F 62% 30.15 in 10.0 mi West 10.4 mph - N/A   Clear
2:53 PM 57.0 °F - 43.0 °F 59% 30.15 in 10.0 mi NW 10.4 mph - N/A   Clear
3:53 PM 57.0 °F - 42.1 °F 57% 30.16 in 10.0 mi West 9.2 mph - N/A   Clear
4:53 PM 55.0 °F - 41.0 °F 59% 30.18 in 10.0 mi WNW 9.2 mph - N/A   Clear
5:53 PM 52.0 °F - 41.0 °F 66% 30.19 in 10.0 mi WNW 9.2 mph - N/A   Clear
6:53 PM 48.9 °F - 39.9 °F 71% 30.23 in 10.0 mi WNW 10.4 mph - N/A   Clear
7:53 PM 46.9 °F - 39.9 °F 77% 30.25 in 10.0 mi WNW 11.5 mph - N/A   Clear
8:53 PM 45.0 °F 40.6 °F 39.0 °F 80% 30.26 in 10.0 mi WNW 8.1 mph - N/A   Clear
9:53 PM 45.0 °F 41.2 °F 39.0 °F 80% 30.26 in 10.0 mi WNW 6.9 mph - N/A   Clear
10:53 PM 44.1 °F 40.8 °F 37.9 °F 79% 30.27 in 10.0 mi WNW 5.8 mph - N/A   Clear
11:53 PM 43.0 °F 38.2 °F 37.9 °F 82% 30.27 in 10.0 mi WNW 8.1 mph - N/A   Clear